Wind_Speed
17 18 18 16 17 16 16 17 17 16 16 18 19 19 20 19 19 18 19 19 20 21 19 20 21 21 21 20 19 19 19 19 18 18 18 18 18 17 17 17 17 17 17 16
18 18 17 18 18 18 18 18 18 18 18 19 19 19 20 20 20 20 20 20 21 22 20 21 21 21 21 21 20 20 20 20 19 18 19 19 19 18 18 18 18 18 18 17
19 17 18 20 19 19 19 19 18 21 20 19 20 20 19 20 22 21 21 20 20 22 22 22 21 20 21 21 21 21 21 21 21 20 20 20 20 19 19 19 19 19 19 19
19 18 20 21 21 20 21 20 21 21 21 20 20 21 19 20 21 20 21 20 20 21 22 23 21 21 22 21 21 21 21 21 21 21 21 21 20 20 20 20 21 21 21 21
18 19 21 22 22 21 20 20 21 21 21 21 20 22 20 19 21 21 20 21 22 22 23 24 23 22 22 22 21 21 21 21 22 21 21 20 20 20 20 21 21 21 22 22
19 20 22 23 23 21 20 21 21 20 21 23 22 23 22 20 21 21 22 22 22 23 23 23 24 23 22 22 23 22 21 21 21 21 21 20 20 20 20 21 22 22 23 23
21 21 21 22 22 21 20 21 21 22 22 24 22 24 24 21 22 24 23 23 23 23 23 23 23 23 23 23 23 22 22 21 21 21 21 21 21 21 21 21 22 22 23 23
21 22 21 21 22 22 21 21 23 24 26 24 23 24 21 21 23 23 23 25 24 23 24 24 24 24 23 23 23 22 21 21 21 21 21 21 21 21 22 22 22 23 23 23
23 24 22 23 23 23 23 23 23 25 25 24 24 22 21 23 25 24 24 25 25 25 25 25 24 24 23 23 22 21 20 21 21 21 21 22 22 22 22 22 23 23 23 24
25 26 24 22 23 23 24 23 23 25 26 26 25 23 23 23 25 26 26 25 25 25 24 24 23 23 23 23 22 21 21 20 21 20 21 22 22 23 23 23 23 23 23 24
27 29 26 24 24 24 24 24 26 27 27 27 28 27 24 26 25 25 26 25 25 25 24 24 23 23 23 22 22 21 21 21 21 22 22 22 23 22 22 23 23 23 24 24
29 29 28 26 23 24 26 27 27 28 28 28 29 30 27 28 26 24 25 25 26 26 25 24 23 24 23 23 22 21 22 22 22 22 23 23 23 22 22 22 23 22 23 23
28 29 29 27 25 24 26 26 26 28 29 29 29 31 28 27 27 25 25 26 25 26 25 25 24 23 24 23 23 23 23 23 23 23 22 22 22 23 23 23 23 23 23 23
28 29 29 28 27 25 26 27 27 29 31 30 30 31 30 27 26 27 26 26 26 26 27 26 25 24 24 24 24 24 24 24 24 25 24 23 23 23 23 23 23 24 24 23
28 28 28 27 27 26 27 28 28 30 30 31 31 31 30 28 28 29 27 27 28 28 28 27 26 25 24 24 24 24 25 25 25 25 25 24 23 24 24 24 24 24 24 24
28 28 28 27 25 25 26 27 27 29 29 30 30 30 29 30 29 29 29 29 28 28 28 27 26 25 25 24 24 25 25 25 26 25 25 25 25 24 24 24 24 24 24 24
28 28 28 27 26 26 26 25 27 29 30 30 31 31 31 31 31 31 30 29 29 28 27 26 26 26 26 25 24 25 25 25 25 25 25 25 24 24 24 24 24 24 24 24
28 27 27 27 26 26 26 25 25 28 30 30 31 31 30 31 31 30 30 29 28 27 26 26 26 25 25 25 25 25 25 25 25 25 25 25 25 24 24 24 24 24 24 24
28 27 27 27 26 25 25 25 26 28 31 31 30 30 31 30 30 31 29 28 27 25 25 25 25 24 25 26 25 25 24 24 24 25 25 25 25 25 25 25 25 25 25 25
26 27 28 28 27 27 26 25 26 28 32 30 30 30 30 29 30 30 28 28 26 25 25 25 24 24 25 25 25 24 24 23 23 23 24 25 25 25 24 25 25 25 26 27
25 27 27 27 27 28 26 26 26 29 31 29 29 30 30 30 30 29 29 28 26 25 25 25 24 24 24 23 23 24 24 23 24 24 24 24 25 25 25 25 25 26 26 27
25 26 27 27 27 27 27 26 28 29 27 28 30 30 30 29 29 29 29 28 27 27 26 25 24 24 24 23 23 23 24 24 24 25 25 25 25 26 26 26 26 27 27 27
25 25 26 27 28 27 26 26 27 26 25 26 28 29 29 28 27 26 26 25 24 25 25 25 24 24 24 24 23 23 24 25 25 25 25 26 26 27 27 27 27 27 27 28
24 25 26 26 27 27 26 26 26 26 26 27 27 28 29 28 27 26 25 24 25 26 26 25 24 25 25 25 24 24 24 25 26 26 26 26 27 27 27 27 28 27 27 28
24 22 22 23 23 24 25 26 27 26 26 26 26 26 26 27 26 26 25 25 26 26 26 26 26 25 25 25 25 25 26 26 26 25 25 26 26 27 27 28 28 28 28 28
24 24 23 23 23 24 25 25 25 25 25 25 24 24 24 24 25 25 26 26 26 25 24 25 25 25 24 25 25 25 25 25 24 25 25 25 25 26 26 26 27 27 28 28
Wind_Direction
255 256 258 258 261 264 265 266 267 269 272 273 275 276 276 277 277 280 284 287 290 290 289 289 288 287 288 288 287 285 285 285 286 286 287 285 283 280 278 279 283 284 284 285
256 260 263 261 259 263 266 266 269 270 269 271 274 274 275 274 275 275 280 285 288 289 290 287 287 287 286 287 287 285 283 284 284 284 283 282 280 278 277 278 279 279 281 283
255 256 257 258 259 260 263 268 268 270 269 268 272 269 269 275 276 277 279 284 288 290 291 288 283 285 286 287 286 285 283 282 282 282 280 280 279 277 276 276 275 275 278 280
252 251 254 255 255 258 264 267 268 267 268 266 268 270 267 272 274 280 282 282 285 286 289 290 287 284 286 287 286 287 284 281 281 280 279 278 278 276 274 273 273 273 276 279
251 250 252 254 257 261 262 264 264 265 267 267 266 267 265 263 270 275 281 283 285 285 286 290 289 287 289 290 288 287 285 281 278 278 277 275 277 277 274 275 275 277 278 278
253 251 252 256 257 259 261 263 264 266 264 266 268 269 263 260 270 276 281 282 283 284 285 286 285 288 289 287 287 286 285 282 279 278 278 277 276 277 276 274 275 277 279 277
257 255 257 256 259 258 259 261 263 266 263 261 266 267 262 260 268 272 274 277 280 282 285 285 285 288 287 285 284 284 284 283 281 279 279 279 278 276 278 278 278 280 280 278
258 257 256 257 258 259 256 256 258 262 266 271 273 268 267 265 268 273 278 281 282 282 283 284 284 285 286 284 284 283 283 283 283 282 279 278 277 276 277 278 278 278 280 278
251 255 258 259 257 254 254 252 255 261 267 269 266 267 270 269 266 270 275 278 283 285 283 282 283 282 283 282 282 284 282 282 283 282 281 281 278 277 278 278 277 276 278 279
252 254 252 254 256 255 254 254 255 255 259 263 265 267 272 275 273 275 279 278 282 285 284 285 284 283 282 281 283 283 281 282 283 281 281 281 278 277 278 279 279 281 282 281
253 256 255 251 251 254 255 251 250 253 253 258 265 265 265 272 274 275 275 278 281 285 283 283 283 281 281 281 281 281 281 282 281 279 279 279 278 279 280 280 279 281 282 282
254 258 259 254 250 248 250 250 250 250 252 255 260 263 264 267 270 276 277 278 279 281 282 283 282 281 281 281 280 279 278 279 279 279 279 278 280 280 281 281 280 282 284 284
256 257 258 256 252 248 246 247 250 251 254 255 258 263 262 262 273 278 276 277 278 278 279 280 281 281 280 281 280 278 278 279 278 278 279 278 278 280 281 280 280 282 283 283
257 258 258 259 257 254 251 249 248 248 251 254 257 262 263 263 270 275 278 277 277 277 278 279 280 279 279 279 279 279 279 280 279 279 279 279 280 282 282 281 280 281 282 282
256 257 259 260 256 254 254 253 252 251 252 254 259 262 263 266 269 275 277 276 275 277 277 277 278 276 277 277 278 279 278 278 278 279 280 279 278 280 281 280 279 281 282 282
255 257 259 259 256 254 252 250 253 252 251 255 259 264 267 267 270 273 275 274 274 275 275 276 276 275 275 277 277 277 278 276 276 279 279 279 278 279 281 281 280 280 281 281
256 258 258 256 255 255 255 253 252 251 251 255 260 262 265 266 268 271 274 276 273 272 272 273 272 272 273 277 279 277 277 276 277 278 279 279 279 279 281 281 280 280 280 281
254 255 256 255 256 256 257 259 259 256 254 255 259 263 265 266 267 269 272 273 272 271 269 271 270 270 273 276 278 278 278 276 276 277 278 279 279 280 280 281 280 280 279 279
253 253 255 256 257 259 259 260 261 261 258 256 259 262 264 266 265 267 270 272 271 269 271 273 271 271 273 275 277 278 278 278 276 276 277 278 281 282 282 283 283 282 280 280
251 251 254 258 260 259 262 260 261 263 262 260 261 263 265 265 265 265 266 268 273 270 270 270 270 273 273 274 276 276 276 277 277 278 278 279 282 282 282 284 286 285 282 281
252 252 253 257 261 259 262 262 261 260 261 262 265 267 265 263 266 266 267 266 267 268 268 271 273 274 275 276 275 275 276 277 278 279 280 279 281 281 281 283 284 285 285 284
252 254 256 255 255 256 260 262 260 260 263 264 264 266 267 265 265 266 266 263 262 263 265 268 272 275 276 276 275 275 276 277 279 279 280 280 281 282 282 282 283 284 284 284
254 255 256 257 256 258 259 264 264 264 265 267 266 266 269 266 264 266 267 262 261 263 264 267 270 272 273 274 274 276 275 276 278 279 279 280 282 282 283 283 284 284 285 286
255 257 259 257 257 261 263 263 262 262 264 265 267 267 265 267 267 267 264 263 264 266 266 266 268 270 271 273 274 276 276 277 279 280 280 280 282 283 283 285 284 285 285 286
257 261 258 257 258 260 261 262 265 264 263 265 268 267 265 265 266 265 265 265 265 267 267 266 268 270 270 271 272 275 276 278 280 280 280 282 283 285 285 285 284 283 286 288
259 262 261 260 261 263 265 264 264 266 268 268 268 269 268 265 263 263 265 266 268 270 268 266 266 267 269 270 272 274 275 278 280 281 282 283 286 289 288 286 284 284 286 287
Height
5854 5856 5857 5859 5861 5862 5863 5864 5864 5865 5865 5864 5863 5862 5861 5859 5858 5857 5857 5856 5856 5854 5854 5852 5850 5849 5849 5848 5848 5847 5847 5846 5845 5845 5844 5844 5844 5844 5844 5844 5844 5843 5843 5843
5850 5852 5855 5855 5856 5857 5858 5859 5860 5861 5861 5860 5859 5857 5857 5854 5853 5853 5852 5852 5851 5850 5849 5848 5847 5845 5845 5844 5844 5843 5842 5842 5841 5840 5840 5840 5840 5840 5840 5840 5840 5840 5840 5839
5846 5850 5851 5851 5852 5853 5854 5855 5856 5856 5856 5855 5854 5853 5852 5850 5848 5848 5848 5848 5847 5846 5844 5843 5841 5840 5839 5839 5839 5838 5838 5837 5836 5836 5836 5835 5836 5835 5836 5836 5836 5836 5835 5835
5842 5845 5846 5847 5848 5849 5849 5851 5850 5850 5849 5850 5850 5848 5847 5845 5843 5843 5843 5843 5843 5841 5840 5838 5837 5836 5834 5833 5833 5833 5833 5832 5832 5831 5831 5831 5831 5831 5831 5831 5831 5831 5831 5831
5838 5840 5841 5842 5843 5844 5844 5846 5845 5844 5844 5843 5843 5843 5843 5841 5839 5839 5839 5839 5838 5837 5836 5834 5832 5830 5830 5829 5828 5828 5828 5827 5827 5827 5826 5826 5826 5826 5826 5826 5826 5826 5827 5826
5832 5834 5836 5836 5837 5838 5839 5840 5839 5839 5838 5838 5839 5838 5836 5836 5835 5835 5834 5834 5833 5832 5831 5829 5827 5825 5825 5825 5824 5824 5823 5823 5822 5822 5822 5822 5822 5821 5821 5821 5821 5821 5821 5821
5827 5828 5830 5830 5831 5833 5834 5834 5834 5833 5832 5832 5833 5832 5830 5830 5830 5830 5829 5829 5828 5827 5826 5824 5823 5822 5821 5820 5819 5819 5818 5818 5817 5817 5817 5817 5817 5816 5816 5816 5816 5816 5816 5816
5822 5824 5825 5825 5826 5827 5828 5829 5829 5829 5828 5827 5827 5825 5825 5825 5825 5824 5824 5823 5822 5822 5820 5819 5818 5816 5815 5814 5814 5814 5813 5813 5812 5812 5812 5812 5811 5811 5811 5811 5811 5811 5810 5810
5815 5818 5820 5820 5820 5821 5821 5823 5824 5824 5822 5823 5822 5820 5820 5819 5819 5819 5818 5818 5817 5816 5815 5814 5812 5811 5810 5810 5809 5808 5808 5808 5807 5806 5806 5806 5806 5806 5805 5805 5804 5805 5805 5804
5808 5809 5812 5814 5814 5814 5816 5817 5818 5818 5817 5816 5817 5817 5816 5814 5813 5813 5812 5811 5812 5811 5809 5808 5806 5805 5804 5804 5804 5803 5802 5802 5801 5801 5801 5801 5800 5800 5800 5799 5799 5799 5799 5798
5800 5801 5804 5806 5807 5808 5810 5810 5810 5811 5811 5811 5811 5812 5811 5809 5806 5806 5807 5806 5806 5805 5804 5803 5801 5800 5799 5799 5798 5798 5797 5797 5796 5796 5796 5795 5795 5794 5794 5793 5793 5793 5793 5792
5792 5794 5795 5798 5800 5801 5802 5802 5803 5803 5803 5804 5804 5805 5805 5802 5800 5801 5801 5801 5800 5799 5798 5797 5796 5795 5794 5793 5793 5793 5792 5792 5791 5790 5790 5789 5789 5788 5788 5787 5787 5787 5786 5785
5785 5786 5787 5789 5793 5793 5793 5794 5795 5796 5796 5797 5797 5798 5797 5796 5795 5795 5795 5795 5794 5793 5792 5791 5790 5790 5789 5788 5788 5787 5787 5786 5785 5785 5784 5784 5783 5783 5782 5782 5781 5781 5780 5779
5777 5778 5780 5782 5783 5784 5785 5786 5788 5788 5788 5788 5789 5790 5790 5789 5790 5790 5789 5788 5787 5786 5786 5785 5784 5784 5783 5782 5782 5781 5781 5780 5780 5779 5779 5778 5778 5777 5776 5775 5775 5774 5774 5773
5769 5771 5772 5773 5775 5776 5777 5778 5779 5780 5780 5781 5781 5782 5782 5783 5783 5783 5782 5781 5780 5780 5779 5779 5778 5778 5777 5776 5776 5775 5775 5774 5774 5773 5773 5773 5772 5771 5770 5770 5769 5768 5767 5766
5761 5763 5764 5765 5767 5768 5768 5770 5770 5772 5773 5772 5773 5775 5776 5775 5775 5775 5775 5774 5773 5773 5773 5772 5771 5771 5770 5769 5769 5769 5768 5768 5767 5767 5766 5766 5765 5765 5764 5763 5762 5761 5760 5759
5755 5757 5757 5758 5760 5760 5760 5762 5763 5763 5764 5766 5766 5768 5768 5768 5767 5767 5767 5766 5765 5765 5765 5765 5764 5764 5763 5762 5762 5761 5761 5761 5760 5760 5760 5759 5759 5758 5757 5756 5756 5755 5753 5753
5749 5750 5750 5751 5753 5752 5756 5756 5756 5756 5757 5758 5758 5759 5760 5759 5759 5759 5759 5758 5757 5756 5757 5757 5757 5757 5756 5756 5755 5754 5754 5753 5753 5753 5753 5752 5752 5751 5750 5750 5749 5748 5747 5746
5741 5743 5744 5745 5745 5745 5747 5748 5748 5748 5748 5749 5749 5751 5751 5751 5751 5751 5751 5750 5748 5748 5750 5750 5749 5749 5749 5748 5748 5747 5747 5747 5746 5746 5745 5745 5745 5744 5743 5742 5742 5741 5740 5739
5734 5735 5737 5737 5737 5738 5739 5740 5741 5741 5739 5740 5740 5742 5742 5743 5743 5744 5743 5742 5740 5741 5742 5742 5742 5742 5742 5741 5741 5740 5740 5740 5739 5739 5739 5738 5738 5737 5736 5735 5734 5733 5732 5731
5727 5728 5729 5730 5729 5730 5731 5732 5733 5734 5733 5733 5732 5732 5733 5734 5735 5735 5735 5735 5734 5735 5735 5735 5735 5735 5734 5734 5734 5734 5733 5733 5733 5732 5732 5731 5731 5730 5729 5728 5727 5726 5725 5723
5721 5722 5723 5723 5723 5726 5724 5725 5725 5724 5725 5725 5724 5724 5725 5725 5726 5726 5726 5727 5727 5728 5728 5728 5728 5728 5728 5727 5727 5727 5727 5727 5726 5725 5725 5725 5724 5723 5722 5721 5720 5718 5717 5715
5713 5714 5714 5716 5718 5717 5715 5715 5716 5716 5717 5717 5717 5717 5717 5718 5718 5718 5719 5719 5719 5720 5720 5721 5721 5721 5721 5721 5721 5720 5720 5720 5719 5719 5718 5717 5716 5715 5714 5713 5711 5710 5709 5707
5706 5706 5706 5707 5709 5708 5709 5709 5709 5710 5710 5710 5710 5710 5710 5711 5711 5711 5712 5712 5712 5713 5713 5714 5714 5714 5715 5715 5714 5714 5713 5713 5712 5711 5710 5709 5709 5707 5706 5704 5703 5702 5701 5699
5698 5699 5698 5698 5700 5701 5702 5702 5702 5702 5703 5703 5703 5703 5703 5704 5704 5705 5705 5705 5706 5706 5707 5707 5707 5708 5708 5708 5707 5707 5706 5706 5704 5703 5702 5702 5700 5699 5698 5696 5695 5694 5693 5691
5692 5691 5692 5692 5693 5694 5694 5694 5695 5695 5695 5696 5696 5696 5696 5696 5697 5698 5698 5699 5699 5700 5700 5700 5701 5701 5701 5701 5700 5700 5699 5698 5697 5696 5695 5694 5693 5691 5690 5688 5687 5686 5685 5683